Flag for Australia Weather past 2 weeks in Sydney, New South Wales, Australia

Now
50 °F

Clear.


Feels Like: 45 °F
Forecast: 44 / 55 °F
Wind: 14 mph from West

Location: Sydney Airport

Current Time: Jul 6, 2015 at 10:08:07 PM

Latest Report: Jul 6, 2015 at 9:30 PM


Visibility: 10 mi

Pressure: 30.01 "Hg

Humidity: 54%

Dew point: 34 °F

Location of SydneyLocation

Historic Weather in Sydney — Graph

°F

Sydney temperature yesterday

Maximum temperature yesterday: 64 °F (at 1:30 PM)
Minimum temperature yesterday: 43 °F (at 4:30 AM)
Average temperature yesterday: 53 °F

Past Weeks' High & Low Weather Summary

 TemperatureHumidityPressure
High70 °F (Jun 24, 12:00 PM)100% (Jun 22, 1:30 AM)30.51 "Hg (Jun 22, 1:30 AM)
Low41 °F (Jul 4, 7:00 AM)25% (Jul 4, 2:00 PM)29.92 "Hg (Jul 6, 12:30 PM)
Average55 °F66%30.26 "Hg
* Reported Jun 21 9:00 PM — Jul 6 9:00 PM, Sydney, Weather by CustomWeather, © 2015

Note: Actual official high and low records may vary slightly from our data, if they occured in-between our weather recording intervals... More about our weather records

Advertising

Sydney weather history for previous 24 hours

 ConditionsComfort  
Time TempWeatherWind HumidityBarometerVisibility
9:00 PM
Mon, Jul 6
50 °FClear.13 mph54%30.01 "Hg10 mi
8:30 PM50 °FClear.13 mph54%30.01 "Hg10 mi
8:00 PM52 °FClear.15 mph47%30.01 "Hg10 mi
7:30 PM52 °FClear.14 mph50%29.98 "Hg10 mi
7:00 PM54 °FClear.14 mph47%29.98 "Hg10 mi
6:30 PM54 °FClear.17 mph47%29.98 "Hg10 mi
6:00 PM54 °FClear.17 mph47%29.98 "Hg10 mi
5:30 PM55 °FClear.18 mph41%29.95 "Hg10 mi
5:00 PM57 °FClear.16 mph41%29.95 "Hg10 mi
4:30 PM59 °FClear.18 mph39%29.95 "Hg10 mi
4:00 PM59 °FClear.17 mph36%29.92 "Hg10 mi
3:30 PM61 °FSunny.18 mph31%29.92 "Hg10 mi
3:00 PM61 °FSunny.18 mph31%29.92 "Hg10 mi
2:30 PM63 °FSunny.16 mph32%29.92 "Hg10 mi
2:00 PM63 °FSunny.18 mph30%29.92 "Hg10 mi
1:30 PM61 °FSunny.17 mph31%29.92 "Hg10 mi
1:00 PM61 °FSunny.12 mph31%29.92 "Hg10 mi
12:30 PM61 °FSunny.16 mph31%29.92 "Hg10 mi
12:00 PM59 °FSunny.14 mph36%29.95 "Hg10 mi
11:30 AM59 °FSunny.13 mph36%29.98 "Hg10 mi
11:00 AM57 °FSunny.13 mph39%29.98 "Hg10 mi
10:30 AM55 °FSunny.10 mph44%29.98 "Hg10 mi
10:00 AM54 °FSunny.10 mph47%30.01 "Hg10 mi
9:30 AM52 °FSunny.9 mph47%30.01 "Hg10 mi
9:00 AM50 °FSunny.10 mph50%30.01 "Hg10 mi
8:30 AM48 °FSunny.10 mph50%30.01 "Hg10 mi
8:00 AM46 °FSunny.10 mph53%30.01 "Hg10 mi
7:30 AM45 °FSunny.10 mph57%30.01 "Hg10 mi
7:00 AM45 °FSunny.9 mph57%30.01 "Hg10 mi
6:30 AM43 °FSunny.9 mph66%30.01 "Hg10 mi
6:00 AM45 °FSunny.6 mph61%29.98 "Hg10 mi
5:30 AM43 °FClear.8 mph71%29.98 "Hg10 mi
5:00 AM45 °FClear.8 mph66%29.98 "Hg10 mi
4:30 AM45 °FClear.7 mph71%30.01 "Hg10 mi
4:00 AM45 °FClear.8 mph81%30.01 "Hg10 mi
3:30 AM45 °FClear.9 mph81%30.01 "Hg10 mi
3:00 AM45 °FClear.8 mph81%30.01 "Hg10 mi
2:30 AM46 °FClear.8 mph76%30.01 "Hg10 mi
2:00 AM46 °FClear.8 mph76%30.04 "Hg10 mi
1:30 AM46 °FClear.8 mph76%30.04 "Hg10 mi
1:00 AM46 °FClear.8 mph76%30.04 "Hg10 mi
12:30 AM48 °FClear.10 mph76%30.04 "Hg10 mi
12:00 AM48 °FClear.10 mph76%30.07 "Hg10 mi
11:30 PM
Sun, Jul 5
48 °FClear.10 mph71%30.04 "Hg10 mi
11:00 PM50 °FClear.12 mph67%30.07 "Hg10 mi
10:30 PM50 °FClear.8 mph67%30.04 "Hg10 mi
10:00 PM52 °FClear.7 mph58%30.04 "Hg10 mi
Weather by CustomWeather, © 2015

See weather overviewHow to use our weather pages